timestamp,wind_dir_avg,wind_spd_max_dir,wind_spd_avg,wind_spd_gust,battery_voltage,lat,long
2019-02-16 00:00:00+00:00,46.0,52.0,1.08,1.23,,47.59359,-54.27349
2019-02-16 00:10:00+00:00,25.0,358.0,0.8,0.98,,47.59359,-54.27349
2019-02-16 00:20:00+00:00,71.0,74.0,0.93,1.1,,47.59359,-54.27349
2019-02-16 00:30:00+00:00,34.0,30.0,1.41,1.7,,47.59359,-54.27349
2019-02-16 00:40:00+00:00,13.0,13.0,1.58,1.81,,47.59359,-54.27349
2019-02-16 00:50:00+00:00,292.0,289.0,1.52,1.69,,47.59359,-54.27349
2019-02-16 01:00:00+00:00,318.0,311.0,1.33,1.59,,47.59359,-54.27349
2019-02-16 01:10:00+00:00,296.0,302.0,1.71,2.36,,47.59359,-54.27349
2019-02-16 01:20:00+00:00,296.0,294.0,1.46,1.7,,47.59359,-54.27349
2019-02-16 01:30:00+00:00,305.0,308.0,0.93,1.59,,47.59359,-54.27349
2019-02-16 01:40:00+00:00,316.0,313.0,0.4,0.6,,47.59359,-54.27349
2019-02-16 01:50:00+00:00,354.0,357.0,1.41,1.62,,47.59359,-54.27349
2019-02-16 02:00:00+00:00,15.0,10.0,1.2,1.3,,47.59359,-54.27349
2019-02-16 02:10:00+00:00,48.0,53.0,0.74,0.87,,47.59359,-54.27349
2019-02-16 02:20:00+00:00,28.0,23.0,1.63,1.86,,47.59359,-54.27349
2019-02-16 02:30:00+00:00,38.0,47.0,2.08,2.43,,47.59359,-54.27349
2019-02-16 02:40:00+00:00,43.0,47.0,1.88,2.17,,47.59359,-54.27349
2019-02-16 02:50:00+00:00,40.0,46.0,1.9,2.1,,47.59359,-54.27349
2019-02-16 03:00:00+00:00,34.0,33.0,1.98,2.4,,47.59359,-54.27349
2019-02-16 03:10:00+00:00,36.0,36.0,2.61,3.07,,47.59359,-54.27349
2019-02-16 03:20:00+00:00,41.0,40.0,2.78,3.09,,47.59359,-54.27349
2019-02-16 03:30:00+00:00,41.0,45.0,2.74,3.26,,47.59359,-54.27349
2019-02-16 03:40:00+00:00,57.0,55.0,2.29,2.62,,47.59359,-54.27349
2019-02-16 03:50:00+00:00,60.0,54.0,2.28,2.72,,47.59359,-54.27349
2019-02-16 04:00:00+00:00,45.0,57.0,2.43,2.87,,47.59359,-54.27349
2019-02-16 04:10:00+00:00,48.0,45.0,2.67,3.04,,47.59359,-54.27349
2019-02-16 04:20:00+00:00,72.0,67.0,2.13,2.37,,47.59359,-54.27349
2019-02-16 04:30:00+00:00,76.0,74.0,1.84,2.28,,47.59359,-54.27349
2019-02-16 04:40:00+00:00,87.0,80.0,1.43,1.66,,47.59359,-54.27349
2019-02-16 04:50:00+00:00,91.0,97.0,1.13,1.44,,47.59359,-54.27349
2019-02-16 05:00:00+00:00,169.0,162.0,1.33,1.78,,47.59359,-54.27349
2019-02-16 05:10:00+00:00,188.0,195.0,2.22,2.94,,47.59359,-54.27349
2019-02-16 05:20:00+00:00,183.0,182.0,2.79,3.44,,47.59359,-54.27349
2019-02-16 05:30:00+00:00,181.0,180.0,3.95,4.52,,47.59359,-54.27349
2019-02-16 05:40:00+00:00,188.0,188.0,4.96,5.56,,47.59359,-54.27349
2019-02-16 05:50:00+00:00,179.0,178.0,4.65,5.31,,47.59359,-54.27349
2019-02-16 06:00:00+00:00,171.0,170.0,4.94,5.82,,47.59359,-54.27349
2019-02-16 06:10:00+00:00,182.0,186.0,5.36,6.12,,47.59359,-54.27349
2019-02-16 06:20:00+00:00,186.0,187.0,5.65,6.45,,47.59359,-54.27349
2019-02-16 06:30:00+00:00,189.0,189.0,5.91,6.79,,47.59359,-54.27349
2019-02-16 06:40:00+00:00,191.0,190.0,6.28,7.23,,47.59359,-54.27349
2019-02-16 06:50:00+00:00,190.0,194.0,5.57,6.78,,47.59359,-54.27349
2019-02-16 07:00:00+00:00,208.0,203.0,7.12,8.22,,47.59359,-54.27349
2019-02-16 07:10:00+00:00,197.0,193.0,6.29,6.73,,47.59359,-54.27349
2019-02-16 07:20:00+00:00,228.0,230.0,7.76,8.53,,47.59359,-54.27349
2019-02-16 07:30:00+00:00,234.0,233.0,6.51,7.73,,47.59359,-54.27349
2019-02-16 07:40:00+00:00,219.0,221.0,9.49,10.19,,47.59359,-54.27349
2019-02-16 07:50:00+00:00,217.0,221.0,8.75,9.56,,47.59359,-54.27349
2019-02-16 08:00:00+00:00,208.0,210.0,8.31,9.11,,47.59359,-54.27349
2019-02-16 08:10:00+00:00,210.0,204.0,7.36,8.41,,47.59359,-54.27349
2019-02-16 08:20:00+00:00,220.0,217.0,8.34,9.89,,47.59359,-54.27349
2019-02-16 08:30:00+00:00,199.0,192.0,7.89,9.36,,47.59359,-54.27349
2019-02-16 08:40:00+00:00,208.0,212.0,8.09,9.23,,47.59359,-54.27349
2019-02-16 08:50:00+00:00,217.0,222.0,8.46,9.52,,47.59359,-54.27349
2019-02-16 09:00:00+00:00,191.0,204.0,7.22,8.51,,47.59359,-54.27349
2019-02-16 09:10:00+00:00,201.0,196.0,7.94,9.24,,47.59359,-54.27349
2019-02-16 09:20:00+00:00,193.0,195.0,7.02,7.78,,47.59359,-54.27349
2019-02-16 09:30:00+00:00,200.0,196.0,8.32,9.67,,47.59359,-54.27349
2019-02-16 09:40:00+00:00,208.0,205.0,7.41,8.58,,47.59359,-54.27349
2019-02-16 09:50:00+00:00,208.0,206.0,7.21,8.0,,47.59359,-54.27349
2019-02-16 10:00:00+00:00,198.0,198.0,8.49,9.36,,47.59359,-54.27349
2019-02-16 10:10:00+00:00,204.0,208.0,8.28,9.05,,47.59359,-54.27349
2019-02-16 10:20:00+00:00,219.0,225.0,9.54,10.49,,47.59359,-54.27349
2019-02-16 10:30:00+00:00,213.0,203.0,10.52,13.14,,47.59359,-54.27349
2019-02-16 10:40:00+00:00,206.0,213.0,7.76,8.64,,47.59359,-54.27349
2019-02-16 10:50:00+00:00,196.0,199.0,7.65,8.78,,47.59359,-54.27349
2019-02-16 11:00:00+00:00,196.0,209.0,7.31,8.64,,47.59359,-54.27349
2019-02-16 11:10:00+00:00,196.0,194.0,8.18,9.26,,47.59359,-54.27349
2019-02-16 11:20:00+00:00,190.0,189.0,8.87,9.86,,47.59359,-54.27349
2019-02-16 11:30:00+00:00,188.0,187.0,7.76,8.79,,47.59359,-54.27349
2019-02-16 11:40:00+00:00,193.0,193.0,8.79,9.83,,47.59359,-54.27349
2019-02-16 11:50:00+00:00,189.0,185.0,7.7,8.69,,47.59359,-54.27349
2019-02-16 12:00:00+00:00,186.0,183.0,8.86,10.06,,47.59359,-54.27349
2019-02-16 12:10:00+00:00,187.0,185.0,7.33,7.89,,47.59359,-54.27349
2019-02-16 12:20:00+00:00,188.0,187.0,7.81,9.21,,47.59359,-54.27349
2019-02-16 12:30:00+00:00,185.0,190.0,7.78,8.3,,47.59359,-54.27349
2019-02-16 12:40:00+00:00,185.0,187.0,7.69,8.57,,47.59359,-54.27349
2019-02-16 12:50:00+00:00,185.0,184.0,7.15,8.15,,47.59359,-54.27349
2019-02-16 13:00:00+00:00,196.0,196.0,8.39,9.68,,47.59359,-54.27349
2019-02-16 13:10:00+00:00,190.0,195.0,7.83,9.33,,47.59359,-54.27349
2019-02-16 13:20:00+00:00,195.0,197.0,8.86,9.81,,47.59359,-54.27349
2019-02-16 13:30:00+00:00,186.0,189.0,7.78,8.85,,47.59359,-54.27349
2019-02-16 13:40:00+00:00,189.0,189.0,7.86,8.81,,47.59359,-54.27349
2019-02-16 13:50:00+00:00,194.0,187.0,8.6,10.02,,47.59359,-54.27349
2019-02-16 14:00:00+00:00,200.0,197.0,9.0,10.66,,47.59359,-54.27349
2019-02-16 14:10:00+00:00,206.0,208.0,10.29,11.59,,47.59359,-54.27349
2019-02-16 14:20:00+00:00,204.0,195.0,10.5,12.56,,47.59359,-54.27349
2019-02-16 14:30:00+00:00,200.0,201.0,8.94,10.31,,47.59359,-54.27349
2019-02-16 14:40:00+00:00,200.0,195.0,9.36,10.46,,47.59359,-54.27349
2019-02-16 14:50:00+00:00,208.0,206.0,11.19,12.71,,47.59359,-54.27349
2019-02-16 15:00:00+00:00,198.0,199.0,12.51,15.81,,47.59359,-54.27349
2019-02-16 15:10:00+00:00,196.0,201.0,11.22,12.77,,47.59359,-54.27349
2019-02-16 15:20:00+00:00,196.0,199.0,11.47,12.97,,47.59359,-54.27349
2019-02-16 15:30:00+00:00,195.0,202.0,10.34,12.0,,47.59359,-54.27349
2019-02-16 15:40:00+00:00,191.0,189.0,10.81,12.88,,47.59359,-54.27349
2019-02-16 15:50:00+00:00,191.0,191.0,10.54,12.44,,47.59359,-54.27349
2019-02-16 16:00:00+00:00,187.0,201.0,11.48,14.45,,47.59359,-54.27349
2019-02-16 16:10:00+00:00,180.0,180.0,10.45,12.94,,47.59359,-54.27349
2019-02-16 16:20:00+00:00,183.0,184.0,11.42,13.5,,47.59359,-54.27349
2019-02-16 16:30:00+00:00,191.0,185.0,9.29,10.93,,47.59359,-54.27349
2019-02-16 16:40:00+00:00,192.0,191.0,10.81,12.2,,47.59359,-54.27349
2019-02-16 16:50:00+00:00,198.0,199.0,12.43,14.32,,47.59359,-54.27349
2019-02-16 17:00:00+00:00,189.0,197.0,10.82,13.01,,47.59359,-54.27349
2019-02-16 17:10:00+00:00,193.0,198.0,12.77,15.65,,47.59359,-54.27349
2019-02-16 17:20:00+00:00,194.0,197.0,11.83,14.12,,47.59359,-54.27349
2019-02-16 17:30:00+00:00,196.0,199.0,13.46,16.58,,47.59359,-54.27349
2019-02-16 17:40:00+00:00,194.0,189.0,13.3,14.86,,47.59359,-54.27349
2019-02-16 17:50:00+00:00,197.0,198.0,12.54,14.32,,47.59359,-54.27349
2019-02-16 18:00:00+00:00,195.0,196.0,12.42,14.35,,47.59359,-54.27349
2019-02-16 18:10:00+00:00,191.0,189.0,9.63,10.55,,47.59359,-54.27349
2019-02-16 18:20:00+00:00,197.0,198.0,12.34,13.67,,47.59359,-54.27349
2019-02-16 18:30:00+00:00,194.0,197.0,13.73,16.54,,47.59359,-54.27349
2019-02-16 18:40:00+00:00,199.0,203.0,13.48,15.09,,47.59359,-54.27349
2019-02-16 18:50:00+00:00,200.0,201.0,12.29,14.78,,47.59359,-54.27349
2019-02-16 19:00:00+00:00,194.0,201.0,10.72,11.6,,47.59359,-54.27349
2019-02-16 19:10:00+00:00,182.0,197.0,10.54,12.42,,47.59359,-54.27349
2019-02-16 19:20:00+00:00,194.0,192.0,9.47,11.17,,47.59359,-54.27349
2019-02-16 19:30:00+00:00,194.0,197.0,11.39,13.34,,47.59359,-54.27349
2019-02-16 19:40:00+00:00,196.0,196.0,9.1,10.16,,47.59359,-54.27349
2019-02-16 19:50:00+00:00,194.0,194.0,9.03,10.0,,47.59359,-54.27349
2019-02-16 20:00:00+00:00,195.0,199.0,9.61,11.85,,47.59359,-54.27349
2019-02-16 20:10:00+00:00,188.0,184.0,10.6,12.01,,47.59359,-54.27349
2019-02-16 20:20:00+00:00,195.0,203.0,9.7,11.87,,47.59359,-54.27349
2019-02-16 20:30:00+00:00,189.0,194.0,11.1,12.89,,47.59359,-54.27349
2019-02-16 20:40:00+00:00,180.0,176.0,7.62,8.69,,47.59359,-54.27349
2019-02-16 20:50:00+00:00,188.0,191.0,9.92,11.75,,47.59359,-54.27349
2019-02-16 21:00:00+00:00,179.0,180.0,9.7,11.25,,47.59359,-54.27349
2019-02-16 21:10:00+00:00,172.0,170.0,10.44,13.16,,47.59359,-54.27349
2019-02-16 21:20:00+00:00,181.0,181.0,11.78,13.42,,47.59359,-54.27349
2019-02-16 21:30:00+00:00,178.0,184.0,11.35,12.54,,47.59359,-54.27349
2019-02-16 21:40:00+00:00,175.0,175.0,13.07,15.15,,47.59359,-54.27349
2019-02-16 21:50:00+00:00,181.0,193.0,12.19,15.05,,47.59359,-54.27349
2019-02-16 22:00:00+00:00,185.0,189.0,13.44,16.45,,47.59359,-54.27349
2019-02-16 22:10:00+00:00,184.0,180.0,13.43,16.3,,47.59359,-54.27349
2019-02-16 22:20:00+00:00,193.0,199.0,12.52,15.28,,47.59359,-54.27349
2019-02-16 22:30:00+00:00,196.0,193.0,11.81,13.77,,47.59359,-54.27349
2019-02-16 22:40:00+00:00,192.0,198.0,13.47,18.63,,47.59359,-54.27349
2019-02-16 22:50:00+00:00,188.0,185.0,13.54,15.95,,47.59359,-54.27349
2019-02-16 23:00:00+00:00,185.0,192.0,15.64,18.26,,47.59359,-54.27349
2019-02-16 23:10:00+00:00,186.0,190.0,15.69,18.88,,47.59359,-54.27349
2019-02-16 23:20:00+00:00,181.0,178.0,14.9,17.86,,47.59359,-54.27349
2019-02-16 23:30:00+00:00,175.0,178.0,15.44,18.32,,47.59359,-54.27349
2019-02-16 23:40:00+00:00,180.0,178.0,16.32,18.88,,47.59359,-54.27349
2019-02-16 23:50:00+00:00,180.0,184.0,17.5,20.76,,47.59359,-54.27349
